Location: Napier
(39.4830°S, 176.9170°E)
Time: 03:21:29
(UTC+12:00)

Cosmos 1943 Rocket - Pass Details

Date: 15 August 2020
Orbit: 812 x 843 km, 71.0° (Epoch: 20 September)

Event Time Altitude Azimuth Distance (km) Brightness Sun altitude
Rises 18:56:29 0° 326° (NW) 3,332 5.9 -16.4°
Reaches altitude 10° 18:58:57 10° 321° (NW) 2,406 5.2 -16.8°
Maximum altitude 19:04:20 55° 244° (WSW) 989 2.8 -17.9°
Drops below altitude 10° 19:09:48 10° 166° (SSE) 2,435 4.4 -18.9°
Sets 19:12:19 0° 161° (SSE) 3,376 5.1 -19.4°
